Date String (YYYY-MM-DD hh:mm:ss) UTC,Instrument flags,Ambient pressure (hPa),Sample flow (lpm),Bypass flow (lpm),Sample temperature (°C),Ambient temperature (°C),ASC tube jacket temperature (°C),LED temperature (°C),Box temperature (°C),Sample RH (%),Span deviation,Mass concentration (μg/m³),Mass concentration (μg/m³),Mass concentration (μg/m³)
DateTimeUTC,F1_M11,P_M11,Q1_M11,Q2_M11,T1_M11,T2_M11,T3_M11,T4_M11,T5_M11,U1_M11,ZSPAN_M11,X0_M11,X2_M11,X1_M11
2022-06-11 06:00:00,,0825.0,5.00,0.00,29.3,28.5,00.0,38.1,31.3,15.9,0000.0,0015.58,0005.32,0003.58
2022-06-11 06:01:00,,0824.8,5.01,0.00,29.3,28.5,00.0,38.1,31.3,15.8,0000.0,0014.63,0005.30,0003.56
2022-06-11 06:02:00,,0824.7,5.00,0.00,29.4,28.6,00.0,38.2,31.3,15.6,0000.0,0014.07,0005.29,0003.53
2022-06-11 06:03:00,,0824.6,4.99,0.00,29.4,28.6,00.0,38.2,31.3,15.4,0000.0,0013.79,0005.27,0003.52
2022-06-11 06:04:00,,0824.5,4.99,0.00,29.4,28.1,00.0,38.1,31.2,15.4,0000.0,0013.61,0005.28,0003.51
2022-06-11 06:05:00,,0824.7,5.01,0.00,29.3,27.4,00.0,38.1,31.0,15.5,0000.0,0013.12,0005.21,0003.50
2022-06-11 06:06:00,,0824.6,5.00,0.00,29.2,27.2,00.0,38.1,30.9,15.6,0000.0,0013.37,0005.21,0003.48
2022-06-11 06:07:00,,0824.6,5.00,0.00,29.1,27.1,00.0,38.0,30.8,15.7,0000.0,0014.85,0005.20,0003.46
2022-06-11 06:08:00,,0824.4,4.99,0.00,29.1,27.2,00.0,38.0,30.9,15.7,0000.0,0015.30,0005.12,0003.45
2022-06-11 06:09:00,,0824.5,5.00,0.00,29.1,27.3,00.0,38.0,30.9,15.8,0000.0,0015.70,0005.09,0003.44
2022-06-11 06:10:00,,0824.4,5.00,0.00,29.1,27.5,00.0,38.0,30.9,15.8,0000.0,0016.69,0005.11,0003.44
2022-06-11 06:11:00,,0824.5,5.00,0.00,29.1,27.6,00.0,38.0,30.9,15.7,0000.0,0016.44,0005.08,0003.43
2022-06-11 06:12:00,,0824.4,4.99,0.00,29.1,27.7,00.0,38.0,31.0,15.7,0000.0,0016.16,0005.04,0003.42
2022-06-11 06:13:00,,0824.5,4.99,0.00,29.1,27.8,00.0,38.0,31.0,15.7,0000.0,0016.09,0005.04,0003.43
2022-06-11 06:14:00,,0824.4,4.99,0.00,29.1,27.9,00.0,38.0,31.0,15.7,0000.0,0016.43,0005.10,0003.44
2022-06-11 06:15:00,,0824.4,4.99,0.00,29.1,28.0,00.0,38.0,31.0,15.9,0000.0,0016.72,0005.17,0003.44
2022-06-11 06:16:00,,0824.5,5.00,0.00,29.1,28.1,00.0,38.0,31.0,16.0,0000.0,0017.10,0005.21,0003.43
2022-06-11 06:17:00,,0824.4,5.00,0.00,29.1,28.1,00.0,38.0,31.1,15.7,0000.0,0017.12,0005.26,0003.44
2022-06-11 06:18:00,,0824.5,4.99,0.00,29.2,28.2,00.0,38.0,31.1,15.7,0000.0,0016.71,0005.29,0003.46
2022-06-11 06:19:00,,0824.4,5.01,0.00,29.2,28.2,00.0,38.0,31.1,15.7,0000.0,0016.17,0005.33,0003.47
2022-06-11 06:20:00,,0824.4,5.02,0.00,29.2,28.3,00.0,38.1,31.2,15.5,0000.0,0016.00,0005.37,0003.48
2022-06-11 06:21:00,,0824.4,4.99,0.00,29.2,28.3,00.0,38.1,31.2,15.4,0000.0,0016.11,0005.31,0003.48
2022-06-11 06:22:00,,0824.4,5.00,0.00,29.3,28.4,00.0,38.1,31.2,15.5,0000.0,0016.82,0005.38,0003.49
2022-06-11 06:23:00,,0824.4,5.01,0.00,29.3,28.4,00.0,38.1,31.2,15.5,0000.0,0017.58,0005.48,0003.50
2022-06-11 06:24:00,,0824.4,5.00,0.00,29.3,28.4,00.0,38.1,31.3,15.4,0000.0,0017.13,0005.40,0003.50
2022-06-11 06:25:00,,0824.4,5.00,0.00,29.3,28.5,00.0,38.1,31.3,15.4,0000.0,0017.20,0005.37,0003.49
2022-06-11 06:26:00,,0824.4,4.98,0.00,29.3,28.5,00.0,38.1,31.3,15.3,0000.0,0017.33,0005.37,0003.49
2022-06-11 06:27:00,,0824.5,5.00,0.00,29.4,28.5,00.0,38.2,31.3,15.8,0000.0,0016.99,0005.34,0003.49
2022-06-11 06:28:00,,0824.4,5.00,0.00,29.4,28.5,00.0,38.2,31.3,15.3,0000.0,0016.59,0005.30,0003.48
2022-06-11 06:29:00,,0824.4,5.00,0.00,29.4,28.6,00.0,38.2,31.3,15.0,0000.0,0015.44,0005.27,0003.47
2022-06-11 06:30:00,,0824.4,5.00,0.00,29.4,28.6,00.0,38.2,31.4,15.1,0000.0,0015.07,0005.26,0003.47
2022-06-11 06:31:00,,0824.4,4.99,0.00,29.4,28.6,00.0,38.2,31.4,15.0,0000.0,0014.74,0005.24,0003.46
2022-06-11 06:32:00,,0824.4,5.01,0.00,29.5,28.3,00.0,38.2,31.3,14.9,0000.0,0013.38,0005.26,0003.46
2022-06-11 06:33:00,,0824.3,4.99,0.00,29.4,27.5,00.0,38.1,31.1,15.3,0000.0,0013.35,0005.26,0003.45
2022-06-11 06:34:00,,0824.3,5.00,0.00,29.3,27.2,00.0,38.1,31.0,15.8,0000.0,0012.51,0005.17,0003.44
2022-06-11 06:35:00,,0824.3,5.01,0.00,29.2,27.2,00.0,38.1,30.9,16.0,0000.0,0012.31,0005.21,0003.44
2022-06-11 06:36:00,,0824.4,5.01,0.00,29.2,27.2,00.0,38.1,30.9,16.2,0000.0,0012.80,0005.30,0003.46
2022-06-11 06:37:00,,0824.4,5.00,0.00,29.1,27.3,00.0,38.1,30.9,15.7,0000.0,0013.32,0005.33,0003.47
2022-06-11 06:38:00,,0824.3,4.99,0.00,29.1,27.4,00.0,38.1,30.9,15.7,0000.0,0013.61,0005.36,0003.48
2022-06-11 06:39:00,,0824.3,4.99,0.00,29.1,27.6,00.0,38.1,31.0,15.8,0000.0,0014.09,0005.42,0003.48
2022-06-11 06:40:00,,0824.3,5.00,0.00,29.1,27.7,00.0,38.1,31.0,16.3,0000.0,0014.65,0005.42,0003.49
2022-06-11 06:41:00,,0824.4,5.00,0.00,29.1,27.8,00.0,38.1,31.0,16.0,0000.0,0014.56,0005.41,0003.49
2022-06-11 06:42:00,,0824.3,5.01,0.00,29.1,27.9,00.0,38.1,31.0,15.8,0000.0,0015.03,0005.40,0003.50
2022-06-11 06:43:00,,0824.4,5.00,0.00,29.1,27.9,00.0,38.1,31.0,15.7,0000.0,0016.49,0005.49,0003.51
2022-06-11 06:44:00,,0824.3,4.99,0.00,29.2,28.0,00.0,38.1,31.1,15.7,0000.0,0016.73,0005.47,0003.53
2022-06-11 06:45:00,,0824.3,4.99,0.00,29.2,28.1,00.0,38.1,31.1,15.8,0000.0,0016.86,0005.44,0003.55
2022-06-11 06:46:00,,0824.3,5.01,0.00,29.2,28.1,00.0,38.1,31.1,15.6,0000.0,0016.81,0005.40,0003.54
2022-06-11 06:47:00,,0824.3,4.99,0.00,29.2,28.2,00.0,38.1,31.1,15.5,0000.0,0016.78,0005.37,0003.53
2022-06-11 06:48:00,,0824.4,5.00,0.00,29.2,28.2,00.0,38.1,31.2,15.3,0000.0,0016.17,0005.30,0003.52
2022-06-11 06:49:00,,0824.5,4.99,0.00,29.2,28.3,00.0,38.1,31.2,15.9,0000.0,0016.40,0005.31,0003.52
2022-06-11 06:50:00,,0824.5,5.01,0.00,29.3,28.3,00.0,38.1,31.2,17.2,0000.0,0016.58,0005.33,0003.52
2022-06-11 06:51:00,,0824.4,5.00,0.00,29.3,28.4,00.0,38.1,31.2,16.1,0000.0,0016.57,0005.32,0003.52
2022-06-11 06:52:00,,0824.4,5.00,0.00,29.3,28.4,00.0,38.1,31.3,15.4,0000.0,0016.77,0005.27,0003.51
2022-06-11 06:53:00,,0824.4,5.01,0.00,29.3,28.5,00.0,38.1,31.3,15.3,0000.0,0016.24,0005.25,0003.51
2022-06-11 06:54:00,,0824.5,5.00,0.00,29.4,28.5,00.0,38.2,31.3,16.1,0000.0,0015.42,0005.24,0003.50
2022-06-11 06:55:00,,0824.7,5.00,0.00,29.4,28.5,00.0,38.2,31.3,16.8,0000.0,0015.11,0005.33,0003.50
2022-06-11 06:56:00,,0824.4,5.00,0.00,29.4,28.6,00.0,38.2,31.4,16.5,0000.0,0015.54,0005.50,0003.52
2022-06-11 06:57:00,,0824.5,5.00,0.00,29.4,28.6,00.0,38.2,31.4,16.4,0000.0,0016.57,0005.59,0003.54
2022-06-11 06:58:00,,0824.5,4.99,0.00,29.5,28.7,00.0,38.2,31.4,16.5,0000.0,0016.49,0005.65,0003.56
2022-06-11 06:59:00,,0824.7,4.99,0.00,29.5,28.7,00.0,38.3,31.4,16.5,0000.0,0016.20,0005.70,0003.59
